This is the latest recevied weather packets stored in our database for station/object OK2JF-6. If no packets are shown the sender has not sent any weather packets the latest 10 day(s).
| Time | Temp. | Humidity | Pressure | Rain* | Wind** | Luminosity | Snow |
|---|---|---|---|---|---|---|---|
| 1777628403 | 17.78° C | 39% | 1099.8 hPa | 0 mm | - | 483 W/m² | - |
| 1777628283 | 17.78° C | 38% | 1099.8 hPa | 0 mm | - | 484 W/m² | - |
| 1777627923 | 18.33° C | 39% | 1100.2 hPa | 0 mm | - | 371 W/m² | - |
| 1777627803 | 17.78° C | 39% | 1099.8 hPa | 0 mm | - | 453 W/m² | - |
| 1777627504 | 17.78° C | 41% | 1100 hPa | 0 mm | - | 471 W/m² | - |
| 1777627444 | 17.22° C | 40% | 1100 hPa | 0 mm | - | 392 W/m² | - |
| 1777627263 | 17.78° C | 38% | 1100 hPa | 0 mm | - | 473 W/m² | - |
| 1777627144 | 17.78° C | 40% | 1100.2 hPa | 0 mm | - | 206 W/m² | - |
| 1777626798 | 17.78° C | 40% | 1100.1 hPa | 0 mm | - | 231 W/m² | - |
| 1777626723 | 17.78° C | 40% | 1100.1 hPa | 0 mm | - | 331 W/m² | - |
| 1777626004 | 17.78° C | 39% | 1100.1 hPa | 0 mm | - | 454 W/m² | - |
| 1777625763 | 18.33° C | 40% | 1100 hPa | 0 mm | - | 453 W/m² | - |
| 1777625703 | 17.78° C | 39% | 1100 hPa | 0 mm | - | 450 W/m² | - |
| 1777625644 | 17.78° C | 40% | 1100 hPa | 0 mm | - | 451 W/m² | - |
| 1777624863 | 17.22° C | 40% | 1099.7 hPa | 0 mm | - | 445 W/m² | - |
| 1777624143 | 17.22° C | 41% | 1100.1 hPa | 0 mm | - | 436 W/m² | - |
| 1777623857 | 17.78° C | 40% | 1100 hPa | 0 mm | - | 381 W/m² | - |
| 1777623843 | 17.78° C | 40% | 1100 hPa | 0 mm | - | 217 W/m² | - |
| 1777623783 | 17.78° C | 41% | 1099.8 hPa | 0 mm | - | 173 W/m² | - |
| 1777623663 | 17.78° C | 42% | 1100 hPa | 0 mm | - | 400 W/m² | - |
| 1777623003 | 17.22° C | 42% | 1100 hPa | 0 mm | - | 397 W/m² | - |
| 1777622897 | 17.22° C | 42% | 1099.8 hPa | 0 mm | - | 397 W/m² | - |
| 1777622583 | 17.22° C | 42% | 1100.2 hPa | 0 mm | - | 392 W/m² | - |
| 1777621983 | 16.67° C | 43% | 1100 hPa | 0 mm | - | 359 W/m² | - |
| 1777621264 | 17.22° C | 40% | 1100.1 hPa | 0 mm | - | 337 W/m² | - |
* Rain latest hour (hover to see other rain measurements)
** Current wind speed in m/s (hover to see current wind gust speed)